Time,TemperatureF,DewpointF,PressureIn,WindDirection,WindDirectionDegrees,WindSpeedMPH,WindSpeedGustMPH,Humidity,HourlyPrecipIn,Conditions,Clouds,dailyrainin,SoftwareType,DateUTC
2013-03-16 00:00:00,31.6,24.6,29.04,WSW,255,0.0,1.0,75,0.00,,,0.00,meteohub,2013-03-16 04:00:00,
2013-03-16 00:01:00,31.6,24.6,29.04,SSW,203,0.0,2.0,75,0.00,,,0.00,meteohub,2013-03-16 04:01:00,
2013-03-16 00:07:00,31.6,24.6,29.04,SSW,204,0.0,2.0,75,0.00,,,0.00,meteohub,2013-03-16 04:07:00,
2013-03-16 00:12:00,31.6,24.6,29.04,SSW,200,0.0,2.0,75,0.00,,,0.00,meteohub,2013-03-16 04:12:00,
2013-03-16 00:17:00,31.5,24.4,29.05,East,96,0.0,1.0,75,0.00,,,0.00,meteohub,2013-03-16 04:17:00,
2013-03-16 00:23:00,30.9,24.3,29.05,East,94,0.0,1.0,76,0.00,,,0.00,meteohub,2013-03-16 04:23:00,
2013-03-16 00:28:00,30.7,24.1,29.05,East,95,0.0,1.0,76,0.00,,,0.00,meteohub,2013-03-16 04:28:00,
2013-03-16 00:33:00,30.7,24.1,29.05,NW,304,0.0,1.0,76,0.00,,,0.00,meteohub,2013-03-16 04:33:00,
2013-03-16 00:38:00,30.9,24.3,29.05,West,264,0.0,1.0,76,0.00,,,0.00,meteohub,2013-03-16 04:38:00,
2013-03-16 00:44:00,30.9,24.3,29.05,NNW,335,0.0,1.0,76,0.00,,,0.00,meteohub,2013-03-16 04:44:00,
2013-03-16 00:49:00,31.3,24.6,29.05,NW,312,0.0,1.0,76,0.00,,,0.00,meteohub,2013-03-16 04:49:00,
2013-03-16 00:54:00,31.6,25.0,29.05,WNW,293,1.0,1.0,76,0.00,,,0.00,meteohub,2013-03-16 04:54:00,
2013-03-16 00:59:00,31.8,25.7,29.06,NNE,13,0.0,1.0,78,0.00,,,0.00,meteohub,2013-03-16 04:59:00,
2013-03-16 01:04:00,32.2,26.4,29.06,NNE,29,1.0,3.0,79,0.00,,,0.00,meteohub,2013-03-16 05:04:00,
2013-03-16 01:10:00,32.2,26.8,29.06,WNW,287,0.0,3.0,80,0.00,,,0.00,meteohub,2013-03-16 05:10:00,
2013-03-16 01:15:00,32.0,26.8,29.06,NW,319,1.0,3.0,81,0.00,,,0.00,meteohub,2013-03-16 05:15:00,
2013-03-16 01:20:00,31.8,26.6,29.06,NNW,332,0.0,3.0,81,0.00,,,0.00,meteohub,2013-03-16 05:20:00,
2013-03-16 01:25:00,31.6,26.4,29.06,NNW,332,0.0,3.0,81,0.00,,,0.00,meteohub,2013-03-16 05:25:00,
2013-03-16 01:31:00,31.3,26.4,29.06,SSE,158,0.0,3.0,82,0.00,,,0.00,meteohub,2013-03-16 05:31:00,
2013-03-16 01:36:00,30.9,26.1,29.07,SSE,158,0.0,1.0,82,0.00,,,0.00,meteohub,2013-03-16 05:36:00,
2013-03-16 01:42:00,30.7,26.4,29.07,West,281,1.0,1.0,84,0.00,,,0.00,meteohub,2013-03-16 05:42:00,
2013-03-16 01:47:00,30.7,26.4,29.07,WSW,242,0.0,3.0,84,0.00,,,0.00,meteohub,2013-03-16 05:47:00,
2013-03-16 01:51:00,30.9,26.6,29.07,WSW,242,0.0,3.0,84,0.00,,,0.00,meteohub,2013-03-16 05:51:00,
2013-03-16 01:52:00,30.9,26.6,29.07,WSW,242,0.0,3.0,84,0.00,,,0.00,meteohub,2013-03-16 05:52:00,
2013-03-16 01:57:00,30.9,26.4,29.07,WSW,242,0.0,3.0,83,0.00,,,0.00,meteohub,2013-03-16 05:57:00,
2013-03-16 02:02:00,31.1,26.6,29.07,SSW,202,0.0,1.0,83,0.00,,,0.00,meteohub,2013-03-16 06:02:00,
2013-03-16 02:07:00,31.3,26.4,29.06,East,98,0.0,1.0,82,0.00,,,0.00,meteohub,2013-03-16 06:07:00,
2013-03-16 02:12:00,31.3,25.9,29.07,WSW,255,1.0,1.0,80,0.00,,,0.00,meteohub,2013-03-16 06:12:00,
2013-03-16 02:17:00,31.5,25.3,29.07,NE,55,0.0,1.0,78,0.00,,,0.00,meteohub,2013-03-16 06:17:00,
2013-03-16 02:23:00,31.5,24.8,29.07,East,82,0.0,2.0,76,0.00,,,0.00,meteohub,2013-03-16 06:23:00,
2013-03-16 02:28:00,31.5,24.4,29.08,West,280,0.0,2.0,75,0.00,,,0.00,meteohub,2013-03-16 06:28:00,
2013-03-16 02:33:00,31.3,23.9,29.08,West,280,0.0,4.0,74,0.00,,,0.00,meteohub,2013-03-16 06:33:00,
2013-03-16 02:38:00,31.3,23.7,29.08,West,270,0.0,4.0,73,0.00,,,0.00,meteohub,2013-03-16 06:38:00,
2013-03-16 02:44:00,31.1,23.2,29.08,East,79,2.0,4.0,72,0.00,,,0.00,meteohub,2013-03-16 06:44:00,
2013-03-16 02:49:00,30.9,23.0,29.08,South,186,0.0,2.0,72,0.00,,,0.00,meteohub,2013-03-16 06:49:00,
2013-03-16 02:54:00,30.7,22.5,29.08,South,186,0.0,2.0,71,0.00,,,0.00,meteohub,2013-03-16 06:54:00,
2013-03-16 02:59:00,30.6,22.3,29.08,SSW,197,0.0,2.0,71,0.00,,,0.00,meteohub,2013-03-16 06:59:00,
2013-03-16 03:05:00,30.4,21.7,29.08,SSW,198,0.0,2.0,70,0.00,,,0.00,meteohub,2013-03-16 07:05:00,
2013-03-16 03:10:00,30.2,21.6,29.08,SW,232,0.0,4.0,70,0.00,,,0.00,meteohub,2013-03-16 07:10:00,
2013-03-16 03:15:00,30.0,21.0,29.08,ESE,110,0.0,4.0,69,0.00,,,0.00,meteohub,2013-03-16 07:15:00,
2013-03-16 03:20:00,29.8,20.8,29.08,West,264,0.0,4.0,69,0.00,,,0.00,meteohub,2013-03-16 07:20:00,
2013-03-16 03:25:00,29.7,20.7,29.08,NNE,19,0.0,2.0,69,0.00,,,0.00,meteohub,2013-03-16 07:25:00,
2013-03-16 03:30:00,29.5,20.7,29.08,NNE,19,0.0,2.0,69,0.00,,,0.00,meteohub,2013-03-16 07:30:00,
2013-03-16 03:36:00,29.1,20.3,29.09,ESE,114,0.0,1.0,69,0.00,,,0.00,meteohub,2013-03-16 07:36:00,
2013-03-16 03:41:00,29.1,20.3,29.09,East,96,1.0,1.0,69,0.00,,,0.00,meteohub,2013-03-16 07:41:00,
2013-03-16 03:46:00,28.9,19.8,29.09,East,96,0.0,1.0,68,0.00,,,0.00,meteohub,2013-03-16 07:46:00,
2013-03-16 03:51:00,28.9,20.1,29.09,NE,49,1.0,1.0,69,0.00,,,0.00,meteohub,2013-03-16 07:51:00,
2013-03-16 03:56:00,28.8,19.9,29.09,West,273,0.0,1.0,69,0.00,,,0.00,meteohub,2013-03-16 07:56:00,
2013-03-16 04:01:00,28.8,19.9,29.09,South,180,0.0,1.0,69,0.00,,,0.00,meteohub,2013-03-16 08:01:00,
2013-03-16 04:07:00,28.8,19.6,29.09,South,181,0.0,1.0,68,0.00,,,0.00,meteohub,2013-03-16 08:07:00,
2013-03-16 04:12:00,28.6,19.8,29.09,NW,321,0.0,3.0,69,0.00,,,0.00,meteohub,2013-03-16 08:12:00,
2013-03-16 04:17:00,28.6,20.1,29.10,West,280,0.0,3.0,70,0.00,,,0.00,meteohub,2013-03-16 08:17:00,
2013-03-16 04:22:00,28.4,19.9,29.10,NNW,340,0.0,3.0,70,0.00,,,0.00,meteohub,2013-03-16 08:22:00,
2013-03-16 04:27:00,28.4,19.9,29.10,NW,315,1.0,2.0,70,0.00,,,0.00,meteohub,2013-03-16 08:27:00,
2013-03-16 04:32:00,28.6,20.3,29.10,NW,319,3.0,3.0,71,0.00,,,0.00,meteohub,2013-03-16 08:32:00,
2013-03-16 04:37:00,28.6,20.7,29.11,NNW,328,2.0,4.0,72,0.00,,,0.00,meteohub,2013-03-16 08:37:00,
2013-03-16 04:42:00,28.6,21.0,29.11,North,352,0.0,4.0,73,0.00,,,0.00,meteohub,2013-03-16 08:42:00,
2013-03-16 04:47:00,28.4,21.2,29.11,NNW,335,1.0,4.0,74,0.00,,,0.00,meteohub,2013-03-16 08:47:00,
2013-03-16 04:53:00,28.2,21.4,29.11,NW,319,0.0,4.0,75,0.00,,,0.00,meteohub,2013-03-16 08:53:00,
2013-03-16 04:58:00,28.0,21.2,29.11,NW,324,2.0,4.0,75,0.00,,,0.00,meteohub,2013-03-16 08:58:00,
2013-03-16 05:03:00,28.0,20.8,29.11,NNE,30,0.0,3.0,74,0.00,,,0.00,meteohub,2013-03-16 09:03:00,
2013-03-16 05:09:00,27.9,20.7,29.12,NNW,335,0.0,3.0,74,0.00,,,0.00,meteohub,2013-03-16 09:09:00,
2013-03-16 05:14:00,27.7,20.5,29.12,WSW,240,0.0,3.0,74,0.00,,,0.00,meteohub,2013-03-16 09:14:00,
2013-03-16 05:19:00,27.5,20.3,29.12,SW,232,0.0,3.0,74,0.00,,,0.00,meteohub,2013-03-16 09:19:00,
2013-03-16 05:24:00,27.3,19.8,29.12,North,4,0.0,3.0,73,0.00,,,0.00,meteohub,2013-03-16 09:24:00,
2013-03-16 05:29:00,27.3,19.6,29.12,North,4,2.0,2.0,72,0.00,,,0.00,meteohub,2013-03-16 09:29:00,
2013-03-16 05:35:00,27.1,19.4,29.12,NW,326,0.0,2.0,72,0.00,,,0.00,meteohub,2013-03-16 09:35:00,
2013-03-16 05:40:00,27.1,19.4,29.12,NW,305,1.0,3.0,72,0.00,,,0.00,meteohub,2013-03-16 09:40:00,
2013-03-16 05:45:00,27.0,19.2,29.12,NW,305,0.0,3.0,72,0.00,,,0.00,meteohub,2013-03-16 09:45:00,
2013-03-16 05:50:00,27.0,19.2,29.13,ENE,61,0.0,3.0,72,0.00,,,0.00,meteohub,2013-03-16 09:50:00,
2013-03-16 05:55:00,27.0,19.2,29.13,NW,313,0.0,3.0,72,0.00,,,0.00,meteohub,2013-03-16 09:55:00,
2013-03-16 06:01:00,26.8,19.0,29.13,NW,323,0.0,3.0,72,0.00,,,0.00,meteohub,2013-03-16 10:01:00,
2013-03-16 06:06:00,26.8,18.7,29.13,NW,323,0.0,2.0,71,0.00,,,0.00,meteohub,2013-03-16 10:06:00,
2013-03-16 06:11:00,26.4,18.7,29.13,NW,308,0.0,2.0,72,0.00,,,0.00,meteohub,2013-03-16 10:11:00,
2013-03-16 06:16:00,26.4,18.7,29.13,NW,308,0.0,2.0,72,0.00,,,0.00,meteohub,2013-03-16 10:16:00,
2013-03-16 06:21:00,26.2,18.5,29.14,NW,307,0.0,2.0,72,0.00,,,0.00,meteohub,2013-03-16 10:21:00,
2013-03-16 06:27:00,26.1,18.7,29.14,NW,307,0.0,0.0,73,0.00,,,0.00,meteohub,2013-03-16 10:27:00,
2013-03-16 06:32:00,25.9,18.5,29.14,NW,308,0.0,0.0,73,0.00,,,0.00,meteohub,2013-03-16 10:32:00,
2013-03-16 06:37:00,25.7,18.0,29.14,SW,232,0.0,0.0,72,0.00,,,0.00,meteohub,2013-03-16 10:37:00,
2013-03-16 06:42:00,25.7,18.0,29.14,SSW,205,0.0,1.0,72,0.00,,,0.00,meteohub,2013-03-16 10:42:00,
2013-03-16 06:47:00,25.5,17.8,29.15,SSW,206,0.0,1.0,72,0.00,,,0.00,meteohub,2013-03-16 10:47:00,
2013-03-16 06:52:00,25.5,17.8,29.14,WNW,285,0.0,1.0,72,0.00,,,0.00,meteohub,2013-03-16 10:52:00,
2013-03-16 06:57:00,25.5,17.8,29.15,WNW,285,0.0,1.0,72,0.00,,,0.00,meteohub,2013-03-16 10:57:00,
2013-03-16 07:02:00,25.3,17.2,29.15,WNW,285,0.0,1.0,71,0.00,,,0.00,meteohub,2013-03-16 11:02:00,
2013-03-16 07:07:00,25.3,17.2,29.15,WNW,285,0.0,0.0,71,0.00,,,0.00,meteohub,2013-03-16 11:07:00,
2013-03-16 07:12:00,25.2,17.4,29.15,WNW,285,0.0,0.0,72,0.00,,,0.00,meteohub,2013-03-16 11:12:00,
2013-03-16 07:17:00,25.2,17.8,29.16,WNW,287,0.0,0.0,73,0.00,,,0.00,meteohub,2013-03-16 11:17:00,
2013-03-16 07:22:00,25.0,17.2,29.16,WNW,287,0.0,1.0,72,0.00,,,0.00,meteohub,2013-03-16 11:22:00,
2013-03-16 07:27:00,25.0,18.1,29.16,WNW,287,0.0,1.0,75,0.00,,,0.00,meteohub,2013-03-16 11:27:00,
2013-03-16 07:33:00,25.0,18.0,29.15,ESE,122,0.0,0.0,74,0.00,,,0.00,meteohub,2013-03-16 11:33:00,
2013-03-16 07:38:00,25.0,17.2,29.15,WNW,302,0.0,1.0,72,0.00,,,0.00,meteohub,2013-03-16 11:38:00,
2013-03-16 07:43:00,25.2,17.8,29.16,WNW,302,0.0,1.0,73,0.00,,,0.00,meteohub,2013-03-16 11:43:00,
2013-03-16 07:48:00,25.2,17.8,29.16,WNW,302,0.0,1.0,73,0.00,,,0.00,meteohub,2013-03-16 11:48:00,
2013-03-16 07:54:00,25.2,17.8,29.16,WNW,302,0.0,1.0,73,0.00,,,0.00,meteohub,2013-03-16 11:54:00,
2013-03-16 07:59:00,25.2,17.4,29.16,WNW,302,0.0,1.0,72,0.00,,,0.00,meteohub,2013-03-16 11:59:00,
2013-03-16 08:04:00,25.3,18.0,29.16,WNW,302,0.0,1.0,73,0.00,,,0.00,meteohub,2013-03-16 12:04:00,
2013-03-16 08:10:00,25.3,17.6,29.16,WNW,302,0.0,1.0,72,0.00,,,0.00,meteohub,2013-03-16 12:10:00,
2013-03-16 08:15:00,25.3,17.6,29.16,WNW,302,0.0,0.0,72,0.00,,,0.00,meteohub,2013-03-16 12:15:00,
2013-03-16 08:20:00,25.9,17.8,29.16,WNW,302,0.0,1.0,71,0.00,,,0.00,meteohub,2013-03-16 12:20:00,
2013-03-16 08:25:00,26.1,17.2,29.17,NNW,342,0.0,1.0,69,0.00,,,0.00,meteohub,2013-03-16 12:25:00,
2013-03-16 08:30:00,26.4,16.9,29.17,North,352,1.0,2.0,67,0.00,,,0.00,meteohub,2013-03-16 12:30:00,
2013-03-16 08:35:00,26.8,17.2,29.17,NW,319,0.0,2.0,67,0.00,,,0.00,meteohub,2013-03-16 12:35:00,
2013-03-16 08:41:00,27.3,17.4,29.17,NNW,342,0.0,2.0,66,0.00,,,0.00,meteohub,2013-03-16 12:41:00,
2013-03-16 08:46:00,27.7,17.4,29.17,North,5,1.0,3.0,65,0.00,,,0.00,meteohub,2013-03-16 12:46:00,
2013-03-16 08:51:00,28.0,17.4,29.17,NNW,332,1.0,3.0,64,0.00,,,0.00,meteohub,2013-03-16 12:51:00,
2013-03-16 08:56:00,28.2,17.6,29.17,NNW,330,1.0,3.0,64,0.00,,,0.00,meteohub,2013-03-16 12:56:00,
2013-03-16 09:02:00,28.6,16.9,29.17,NW,318,0.0,2.0,61,0.00,,,0.00,meteohub,2013-03-16 13:02:00,
2013-03-16 09:07:00,28.8,17.8,29.17,NW,318,0.0,2.0,63,0.00,,,0.00,meteohub,2013-03-16 13:07:00,
2013-03-16 09:12:00,28.9,16.9,29.17,WNW,282,0.0,1.0,60,0.00,,,0.00,meteohub,2013-03-16 13:12:00,
2013-03-16 09:17:00,29.1,17.4,29.17,North,358,0.0,1.0,61,0.00,,,0.00,meteohub,2013-03-16 13:17:00,
2013-03-16 09:22:00,29.3,16.7,29.17,NW,317,0.0,4.0,59,0.00,,,0.00,meteohub,2013-03-16 13:22:00,
2013-03-16 09:28:00,29.5,17.2,29.17,NE,39,0.0,4.0,60,0.00,,,0.00,meteohub,2013-03-16 13:28:00,
2013-03-16 09:33:00,29.7,16.3,29.17,WNW,293,1.0,4.0,57,0.00,,,0.00,meteohub,2013-03-16 13:33:00,
2013-03-16 09:38:00,29.7,16.7,29.17,WNW,295,0.0,2.0,58,0.00,,,0.00,meteohub,2013-03-16 13:38:00,
2013-03-16 09:43:00,30.0,17.1,29.17,SE,137,0.0,2.0,58,0.00,,,0.00,meteohub,2013-03-16 13:43:00,
2013-03-16 09:48:00,30.4,17.1,29.16,NNW,336,0.0,2.0,57,0.00,,,0.00,meteohub,2013-03-16 13:48:00,
2013-03-16 09:53:00,30.4,17.1,29.17,WSW,239,0.0,2.0,57,0.00,,,0.00,meteohub,2013-03-16 13:53:00,
2013-03-16 09:58:00,30.6,17.6,29.16,WSW,239,0.0,1.0,58,0.00,,,0.00,meteohub,2013-03-16 13:58:00,
2013-03-16 10:04:00,30.9,17.4,29.17,NNW,338,0.0,1.0,57,0.00,,,0.00,meteohub,2013-03-16 14:04:00,
2013-03-16 10:09:00,31.6,17.2,29.16,ENE,74,0.0,1.0,55,0.00,,,0.00,meteohub,2013-03-16 14:09:00,
2013-03-16 10:15:00,31.6,16.9,29.16,WNW,297,1.0,1.0,54,0.00,,,0.00,meteohub,2013-03-16 14:15:00,
2013-03-16 10:20:00,31.8,17.1,29.16,NNE,23,1.0,2.0,54,0.00,,,0.00,meteohub,2013-03-16 14:20:00,
2013-03-16 10:25:00,31.8,16.7,29.16,South,175,0.0,2.0,53,0.00,,,0.00,meteohub,2013-03-16 14:25:00,
2013-03-16 10:30:00,32.2,16.5,29.15,NW,314,1.0,3.0,52,0.00,,,0.00,meteohub,2013-03-16 14:30:00,
2013-03-16 10:35:00,32.4,16.7,29.16,NE,56,1.0,2.0,52,0.00,,,0.00,meteohub,2013-03-16 14:35:00,
2013-03-16 10:40:00,32.7,16.5,29.16,North,352,1.0,2.0,51,0.00,,,0.00,meteohub,2013-03-16 14:40:00,
2013-03-16 10:46:00,33.1,16.5,29.16,NE,39,0.0,2.0,50,0.00,,,0.00,meteohub,2013-03-16 14:46:00,
2013-03-16 10:51:00,33.4,17.8,29.15,NNW,328,1.0,3.0,52,0.00,,,0.00,meteohub,2013-03-16 14:51:00,
2013-03-16 10:56:00,34.0,16.9,29.15,NNW,332,1.0,3.0,49,0.00,,,0.00,meteohub,2013-03-16 14:56:00,
2013-03-16 11:02:00,33.6,16.0,29.14,SSE,159,0.0,4.0,48,0.00,,,0.00,meteohub,2013-03-16 15:02:00,
2013-03-16 11:07:00,33.6,16.9,29.14,North,359,2.0,4.0,50,0.00,,,0.00,meteohub,2013-03-16 15:07:00,
2013-03-16 11:12:00,33.3,17.1,29.14,NNW,332,1.0,4.0,51,0.00,,,0.00,meteohub,2013-03-16 15:12:00,
2013-03-16 11:17:00,33.3,17.6,29.14,North,11,3.0,3.0,52,0.00,,,0.00,meteohub,2013-03-16 15:17:00,
2013-03-16 11:22:00,33.4,17.8,29.14,NNW,338,1.0,3.0,52,0.00,,,0.00,meteohub,2013-03-16 15:22:00,
2013-03-16 11:27:00,34.3,19.0,29.14,ESE,113,0.0,3.0,53,0.00,,,0.00,meteohub,2013-03-16 15:27:00,
2013-03-16 11:32:00,35.1,18.7,29.14,South,172,0.0,3.0,51,0.00,,,0.00,meteohub,2013-03-16 15:32:00,
2013-03-16 11:37:00,35.4,19.0,29.13,NNW,328,1.0,3.0,51,0.00,,,0.00,meteohub,2013-03-16 15:37:00,
2013-03-16 11:42:00,35.4,17.2,29.13,SSE,160,2.0,3.0,47,0.00,,,0.00,meteohub,2013-03-16 15:42:00,
2013-03-16 11:47:00,35.1,17.4,29.13,NE,39,2.0,4.0,48,0.00,,,0.00,meteohub,2013-03-16 15:47:00,
2013-03-16 11:52:00,35.6,19.2,29.13,SSW,200,0.0,4.0,51,0.00,,,0.00,meteohub,2013-03-16 15:52:00,
2013-03-16 11:57:00,36.3,17.6,29.13,NE,39,0.0,4.0,46,0.00,,,0.00,meteohub,2013-03-16 15:57:00,
2013-03-16 12:02:00,37.0,18.7,29.13,South,191,4.0,4.0,47,0.00,,,0.00,meteohub,2013-03-16 16:02:00,
2013-03-16 12:08:00,37.8,20.8,29.12,South,184,1.0,3.0,50,0.00,,,0.00,meteohub,2013-03-16 16:08:00,
2013-03-16 12:13:00,37.8,18.3,29.12,East,82,1.0,5.0,45,0.00,,,0.00,meteohub,2013-03-16 16:13:00,
2013-03-16 12:18:00,37.2,18.3,29.12,NNE,20,3.0,5.0,46,0.00,,,0.00,meteohub,2013-03-16 16:18:00,
2013-03-16 12:23:00,36.7,18.9,29.12,NE,54,0.0,5.0,48,0.00,,,0.00,meteohub,2013-03-16 16:23:00,
2013-03-16 12:29:00,37.0,18.1,29.11,ENE,65,0.0,4.0,46,0.00,,,0.00,meteohub,2013-03-16 16:29:00,
2013-03-16 12:34:00,37.2,18.9,29.11,East,92,0.0,4.0,47,0.00,,,0.00,meteohub,2013-03-16 16:34:00,
2013-03-16 12:39:00,37.9,19.6,29.11,ESE,102,1.0,3.0,47,0.00,,,0.00,meteohub,2013-03-16 16:39:00,
2013-03-16 12:44:00,38.5,19.6,29.11,NNW,328,0.0,3.0,46,0.00,,,0.00,meteohub,2013-03-16 16:44:00,
2013-03-16 12:49:00,38.5,18.5,29.11,ENE,60,0.0,2.0,44,0.00,,,0.00,meteohub,2013-03-16 16:49:00,
2013-03-16 12:54:00,38.1,18.1,29.11,East,97,0.0,3.0,44,0.00,,,0.00,meteohub,2013-03-16 16:54:00,
2013-03-16 13:00:00,37.9,18.0,29.12,ENE,74,0.0,3.0,44,0.00,,,0.00,meteohub,2013-03-16 17:00:00,
2013-03-16 13:05:00,37.9,18.0,29.12,East,79,0.0,3.0,44,0.00,,,0.00,meteohub,2013-03-16 17:05:00,
2013-03-16 13:10:00,37.4,18.0,29.12,East,82,2.0,3.0,45,0.00,,,0.00,meteohub,2013-03-16 17:10:00,
2013-03-16 13:15:00,37.0,17.1,29.11,East,87,0.0,3.0,44,0.00,,,0.00,meteohub,2013-03-16 17:15:00,
2013-03-16 13:20:00,37.2,17.8,29.11,ENE,73,1.0,3.0,45,0.00,,,0.00,meteohub,2013-03-16 17:20:00,
2013-03-16 13:26:00,37.6,18.1,29.11,ENE,76,2.0,3.0,45,0.00,,,0.00,meteohub,2013-03-16 17:26:00,
2013-03-16 13:31:00,37.4,16.9,29.11,SSE,148,2.0,3.0,43,0.00,,,0.00,meteohub,2013-03-16 17:31:00,
2013-03-16 13:36:00,37.6,17.1,29.11,South,174,2.0,5.0,43,0.00,,,0.00,meteohub,2013-03-16 17:36:00,
2013-03-16 13:41:00,37.8,16.7,29.11,ENE,73,2.0,5.0,42,0.00,,,0.00,meteohub,2013-03-16 17:41:00,
2013-03-16 13:47:00,37.6,17.6,29.10,ESE,106,1.0,4.0,44,0.00,,,0.00,meteohub,2013-03-16 17:47:00,
2013-03-16 13:52:00,37.6,16.5,29.10,ENE,67,2.0,3.0,42,0.00,,,0.00,meteohub,2013-03-16 17:52:00,
2013-03-16 13:57:00,37.0,17.6,29.10,North,9,0.0,4.0,45,0.00,,,0.00,meteohub,2013-03-16 17:57:00,
2013-03-16 14:02:00,36.7,17.8,29.10,NW,311,0.0,4.0,46,0.00,,,0.00,meteohub,2013-03-16 18:02:00,
2013-03-16 14:07:00,36.3,17.6,29.11,ESE,102,0.0,4.0,46,0.00,,,0.00,meteohub,2013-03-16 18:07:00,
2013-03-16 14:12:00,36.3,18.5,29.11,NW,324,0.0,3.0,48,0.00,,,0.00,meteohub,2013-03-16 18:12:00,
2013-03-16 14:17:00,36.1,17.8,29.10,North,0,0.0,3.0,47,0.00,,,0.00,meteohub,2013-03-16 18:17:00,
2013-03-16 14:22:00,36.0,17.2,29.10,NW,315,1.0,3.0,46,0.00,,,0.00,meteohub,2013-03-16 18:22:00,
2013-03-16 14:27:00,35.8,18.5,29.10,South,184,1.0,2.0,49,0.00,,,0.00,meteohub,2013-03-16 18:27:00,
2013-03-16 14:32:00,35.8,18.0,29.10,West,279,0.0,3.0,48,0.00,,,0.00,meteohub,2013-03-16 18:32:00,
2013-03-16 14:38:00,35.8,19.4,29.10,ESE,110,0.0,3.0,51,0.00,,,0.00,meteohub,2013-03-16 18:38:00,
2013-03-16 14:43:00,36.3,21.2,29.11,ENE,75,1.0,3.0,54,0.00,,,0.00,meteohub,2013-03-16 18:43:00,
2013-03-16 14:49:00,36.3,21.2,29.11,South,174,0.0,2.0,54,0.00,,,0.00,meteohub,2013-03-16 18:49:00,
2013-03-16 14:54:00,36.1,21.9,29.11,NNW,342,1.0,2.0,56,0.00,,,0.00,meteohub,2013-03-16 18:54:00,
2013-03-16 15:00:00,35.4,22.1,29.11,NNW,342,0.0,5.0,58,0.00,,,0.00,meteohub,2013-03-16 19:00:00,
2013-03-16 15:05:00,34.9,21.9,29.11,NE,39,0.0,5.0,59,0.00,,,0.00,meteohub,2013-03-16 19:05:00,
2013-03-16 15:10:00,34.7,22.6,29.10,ESE,116,1.0,4.0,61,0.00,,,0.00,meteohub,2013-03-16 19:10:00,
2013-03-16 15:16:00,34.7,22.6,29.10,SSE,149,1.0,3.0,61,0.00,,,0.00,meteohub,2013-03-16 19:16:00,
2013-03-16 15:21:00,34.7,23.4,29.10,ESE,103,0.0,3.0,63,0.00,,,0.00,meteohub,2013-03-16 19:21:00,
2013-03-16 15:26:00,34.9,23.2,29.10,ESE,120,0.0,3.0,62,0.00,,,0.00,meteohub,2013-03-16 19:26:00,
2013-03-16 15:32:00,34.7,23.4,29.10,East,101,0.0,3.0,63,0.00,,,0.00,meteohub,2013-03-16 19:32:00,
2013-03-16 15:37:00,34.9,23.5,29.10,ESE,109,0.0,3.0,63,0.00,,,0.00,meteohub,2013-03-16 19:37:00,
2013-03-16 15:42:00,35.1,24.1,29.10,ESE,102,1.0,3.0,64,0.00,,,0.00,meteohub,2013-03-16 19:42:00,
2013-03-16 15:47:00,34.7,23.4,29.10,East,91,0.0,2.0,63,0.00,,,0.00,meteohub,2013-03-16 19:47:00,
2013-03-16 15:52:00,34.5,24.3,29.10,East,82,1.0,2.0,66,0.00,,,0.00,meteohub,2013-03-16 19:52:00,
2013-03-16 15:57:00,34.7,24.1,29.09,SE,146,0.0,2.0,65,0.00,,,0.00,meteohub,2013-03-16 19:57:00,
2013-03-16 16:02:00,34.5,23.9,29.08,ENE,75,1.0,1.0,65,0.00,,,0.00,meteohub,2013-03-16 20:02:00,
2013-03-16 16:07:00,34.7,24.4,29.09,South,184,1.0,2.0,66,0.00,,,0.00,meteohub,2013-03-16 20:07:00,
2013-03-16 16:12:00,34.7,24.1,29.09,ENE,68,0.0,3.0,65,0.00,,,0.00,meteohub,2013-03-16 20:12:00,
2013-03-16 16:17:00,34.3,23.7,29.09,ENE,68,0.0,3.0,65,0.00,,,0.00,meteohub,2013-03-16 20:17:00,
2013-03-16 16:22:00,34.2,24.6,29.09,South,170,0.0,3.0,68,0.00,,,0.00,meteohub,2013-03-16 20:22:00,
2013-03-16 16:27:00,34.0,23.9,29.08,East,79,0.0,3.0,66,0.00,,,0.00,meteohub,2013-03-16 20:27:00,
2013-03-16 16:32:00,33.6,24.3,29.08,ENE,68,0.0,3.0,68,0.00,,,0.00,meteohub,2013-03-16 20:32:00,
2013-03-16 16:37:00,33.4,24.4,29.08,NW,322,0.0,2.0,69,0.00,,,0.00,meteohub,2013-03-16 20:37:00,
2013-03-16 16:42:00,33.4,24.4,29.08,SE,133,0.0,2.0,69,0.00,,,0.00,meteohub,2013-03-16 20:42:00,
2013-03-16 16:48:00,33.6,24.3,29.08,SE,133,0.0,2.0,68,0.00,,,0.00,meteohub,2013-03-16 20:48:00,
2013-03-16 16:53:00,33.6,24.3,29.08,NNE,20,1.0,2.0,68,0.00,,,0.00,meteohub,2013-03-16 20:53:00,
2013-03-16 16:58:00,33.6,24.3,29.09,West,260,2.0,2.0,68,0.00,,,0.00,meteohub,2013-03-16 20:58:00,
2013-03-16 17:04:00,33.6,23.9,29.08,ESE,121,0.0,2.0,67,0.00,,,0.00,meteohub,2013-03-16 21:04:00,
2013-03-16 17:09:00,33.8,24.4,29.08,ESE,121,0.0,2.0,68,0.00,,,0.00,meteohub,2013-03-16 21:09:00,
2013-03-16 17:14:00,34.0,24.6,29.08,SE,146,1.0,2.0,68,0.00,,,0.00,meteohub,2013-03-16 21:14:00,
2013-03-16 17:19:00,33.8,24.1,29.08,NE,49,0.0,3.0,67,0.00,,,0.00,meteohub,2013-03-16 21:19:00,
2013-03-16 17:24:00,33.6,24.3,29.09,NE,49,0.0,3.0,68,0.00,,,0.00,meteohub,2013-03-16 21:24:00,
2013-03-16 17:30:00,33.8,24.1,29.09,SSE,153,0.0,3.0,67,0.00,,,0.00,meteohub,2013-03-16 21:30:00,
2013-03-16 17:35:00,33.6,24.3,29.09,SSE,167,1.0,2.0,68,0.00,,,0.00,meteohub,2013-03-16 21:35:00,
2013-03-16 17:40:00,33.6,23.9,29.09,SE,131,0.0,2.0,67,0.00,,,0.00,meteohub,2013-03-16 21:40:00,
2013-03-16 17:45:00,33.4,24.1,29.09,SE,131,1.0,2.0,68,0.00,,,0.00,meteohub,2013-03-16 21:45:00,
2013-03-16 17:50:00,33.3,24.6,29.09,South,188,0.0,2.0,70,0.00,,,0.00,meteohub,2013-03-16 21:50:00,
2013-03-16 17:55:00,33.1,24.6,29.10,East,81,0.0,2.0,71,0.00,,,0.00,meteohub,2013-03-16 21:55:00,
2013-03-16 18:00:00,32.7,25.3,29.09,ESE,113,2.0,2.0,74,0.00,,,0.00,meteohub,2013-03-16 22:00:00,
2013-03-16 18:06:00,32.2,25.7,29.09,East,91,0.0,3.0,77,0.00,,,0.00,meteohub,2013-03-16 22:06:00,
2013-03-16 18:12:00,31.8,25.7,29.09,South,169,1.0,3.0,78,0.00,,,0.00,meteohub,2013-03-16 22:12:00,
2013-03-16 18:17:00,31.6,26.2,29.10,ENE,71,1.0,3.0,80,0.00,,,0.00,meteohub,2013-03-16 22:17:00,
2013-03-16 18:22:00,31.3,26.1,29.10,SSW,197,0.0,2.0,81,0.00,,,0.00,meteohub,2013-03-16 22:22:00,
2013-03-16 18:27:00,31.3,26.1,29.10,SSW,197,0.0,2.0,81,0.00,,,0.00,meteohub,2013-03-16 22:27:00,
2013-03-16 18:32:00,31.1,26.6,29.10,SSW,198,0.0,2.0,83,0.00,,,0.00,meteohub,2013-03-16 22:32:00,
2013-03-16 18:37:00,30.9,26.4,29.10,ENE,70,0.0,2.0,83,0.00,,,0.00,meteohub,2013-03-16 22:37:00,
2013-03-16 18:42:00,30.9,26.6,29.10,East,97,0.0,2.0,84,0.00,,,0.00,meteohub,2013-03-16 22:42:00,
2013-03-16 18:47:00,30.7,26.4,29.11,East,97,0.0,2.0,84,0.00,,,0.00,meteohub,2013-03-16 22:47:00,
2013-03-16 18:52:00,30.6,26.6,29.11,East,97,0.0,1.0,85,0.00,,,0.00,meteohub,2013-03-16 22:52:00,
2013-03-16 18:57:00,30.6,26.6,29.11,East,98,0.0,1.0,85,0.00,,,0.00,meteohub,2013-03-16 22:57:00,
2013-03-16 19:02:00,30.4,26.4,29.11,ENE,75,0.0,1.0,85,0.00,,,0.00,meteohub,2013-03-16 23:02:00,
2013-03-16 19:08:00,30.2,26.6,29.11,ENE,75,0.0,2.0,86,0.00,,,0.00,meteohub,2013-03-16 23:08:00,
2013-03-16 19:13:00,30.0,26.6,29.12,SW,221,0.0,2.0,87,0.00,,,0.00,meteohub,2013-03-16 23:13:00,
2013-03-16 19:18:00,30.0,26.6,29.12,SW,222,0.0,1.0,87,0.00,,,0.00,meteohub,2013-03-16 23:18:00,
2013-03-16 19:23:00,30.0,26.6,29.11,SW,222,0.0,1.0,87,0.00,,,0.00,meteohub,2013-03-16 23:23:00,
2013-03-16 19:28:00,29.8,26.8,29.12,SW,222,0.0,0.0,88,0.00,,,0.00,meteohub,2013-03-16 23:28:00,
2013-03-16 19:33:00,29.8,26.8,29.12,SW,222,0.0,0.0,88,0.00,,,0.00,meteohub,2013-03-16 23:33:00,
2013-03-16 19:39:00,29.8,26.8,29.12,SW,222,0.0,0.0,88,0.00,,,0.00,meteohub,2013-03-16 23:39:00,
2013-03-16 19:44:00,29.7,26.8,29.12,SW,221,0.0,0.0,89,0.00,,,0.00,meteohub,2013-03-16 23:44:00,
2013-03-16 19:49:00,29.7,26.8,29.12,SW,221,0.0,0.0,89,0.00,,,0.00,meteohub,2013-03-16 23:49:00,
2013-03-16 19:54:00,29.7,26.8,29.12,SW,221,0.0,1.0,89,0.00,,,0.00,meteohub,2013-03-16 23:54:00,
2013-03-16 19:59:00,29.7,26.8,29.12,SSW,205,0.0,1.0,89,0.00,,,0.00,meteohub,2013-03-16 23:59:00,
2013-03-16 20:05:00,29.5,26.6,29.13,SSW,205,0.0,0.0,89,0.00,,,0.00,meteohub,2013-03-17 00:05:00,
2013-03-16 20:10:00,29.5,26.6,29.13,SSW,205,0.0,0.0,89,0.00,,,0.00,meteohub,2013-03-17 00:10:00,
2013-03-16 20:15:00,29.5,26.6,29.13,SSW,205,0.0,0.0,89,0.00,,,0.00,meteohub,2013-03-17 00:15:00,
2013-03-16 20:20:00,29.5,26.6,29.13,SSW,205,0.0,0.0,89,0.00,,,0.00,meteohub,2013-03-17 00:20:00,
2013-03-16 20:26:00,29.5,26.6,29.13,SSW,206,0.0,0.0,89,0.00,,,0.00,meteohub,2013-03-17 00:26:00,
2013-03-16 20:31:00,29.3,26.4,29.13,SSW,205,0.0,0.0,89,0.00,,,0.00,meteohub,2013-03-17 00:31:00,
2013-03-16 20:36:00,29.1,26.2,29.13,SSW,205,0.0,0.0,89,0.00,,,0.00,meteohub,2013-03-17 00:36:00,
2013-03-16 20:41:00,29.1,26.2,29.13,SSW,205,0.0,0.0,89,0.00,,,0.00,meteohub,2013-03-17 00:41:00,
2013-03-16 20:46:00,29.1,26.2,29.14,SSW,205,0.0,0.0,89,0.00,,,0.00,meteohub,2013-03-17 00:46:00,
2013-03-16 20:52:00,29.1,26.2,29.14,SSW,205,0.0,0.0,89,0.00,,,0.00,meteohub,2013-03-17 00:52:00,
2013-03-16 20:57:00,29.1,26.2,29.14,SSW,205,0.0,0.0,89,0.00,,,0.00,meteohub,2013-03-17 00:57:00,
2013-03-16 21:02:00,29.1,26.6,29.14,SSW,205,0.0,0.0,90,0.00,,,0.00,meteohub,2013-03-17 01:02:00,
2013-03-16 21:07:00,28.9,26.4,29.15,SSW,205,0.0,0.0,90,0.00,,,0.00,meteohub,2013-03-17 01:07:00,
2013-03-16 21:12:00,28.9,26.4,29.15,SSW,205,0.0,0.0,90,0.00,,,0.00,meteohub,2013-03-17 01:12:00,
2013-03-16 21:17:00,28.9,26.4,29.15,SSW,205,0.0,0.0,90,0.00,,,0.00,meteohub,2013-03-17 01:17:00,
2013-03-16 21:22:00,28.9,26.4,29.15,SSW,206,0.0,0.0,90,0.00,,,0.00,meteohub,2013-03-17 01:22:00,
2013-03-16 21:27:00,28.8,26.2,29.16,SSW,206,0.0,0.0,90,0.00,,,0.00,meteohub,2013-03-17 01:27:00,
2013-03-16 21:33:00,28.8,26.2,29.16,SSW,205,0.0,0.0,90,0.00,,,0.00,meteohub,2013-03-17 01:33:00,
2013-03-16 21:38:00,28.8,26.2,29.16,SSW,205,0.0,0.0,90,0.00,,,0.00,meteohub,2013-03-17 01:38:00,
2013-03-16 21:43:00,28.8,26.2,29.16,SSW,205,0.0,0.0,90,0.00,,,0.00,meteohub,2013-03-17 01:43:00,
2013-03-16 21:48:00,28.8,26.2,29.16,SSW,205,0.0,0.0,90,0.00,,,0.00,meteohub,2013-03-17 01:48:00,
2013-03-16 21:53:00,28.8,26.2,29.16,SSW,206,0.0,0.0,90,0.00,,,0.00,meteohub,2013-03-17 01:53:00,
2013-03-16 21:58:00,28.8,26.2,29.16,SSW,205,0.0,0.0,90,0.00,,,0.00,meteohub,2013-03-17 01:58:00,
2013-03-16 22:04:00,28.8,26.2,29.16,SSW,205,0.0,0.0,90,0.00,,,0.00,meteohub,2013-03-17 02:04:00,
2013-03-16 22:09:00,28.8,26.2,29.16,SSW,205,0.0,0.0,90,0.00,,,0.00,meteohub,2013-03-17 02:09:00,
2013-03-16 22:14:00,28.8,26.2,29.17,SSW,205,0.0,0.0,90,0.00,,,0.00,meteohub,2013-03-17 02:14:00,
2013-03-16 22:20:00,28.8,26.2,29.17,SSW,205,0.0,0.0,90,0.00,,,0.00,meteohub,2013-03-17 02:20:00,
2013-03-16 22:25:00,28.8,26.2,29.17,SSW,206,0.0,0.0,90,0.00,,,0.00,meteohub,2013-03-17 02:25:00,
2013-03-16 22:30:00,28.8,26.2,29.18,SSW,206,0.0,0.0,90,0.00,,,0.00,meteohub,2013-03-17 02:30:00,
2013-03-16 22:36:00,28.8,26.2,29.18,SSW,205,0.0,0.0,90,0.00,,,0.00,meteohub,2013-03-17 02:36:00,
2013-03-16 22:41:00,28.8,26.2,29.18,SSW,206,0.0,0.0,90,0.00,,,0.00,meteohub,2013-03-17 02:41:00,
2013-03-16 22:46:00,28.8,26.2,29.18,SSW,205,0.0,0.0,90,0.00,,,0.00,meteohub,2013-03-17 02:46:00,
2013-03-16 22:52:00,28.8,26.2,29.18,SSW,206,0.0,0.0,90,0.00,,,0.00,meteohub,2013-03-17 02:52:00,
2013-03-16 22:57:00,28.8,26.2,29.18,SSW,205,0.0,0.0,90,0.00,,,0.00,meteohub,2013-03-17 02:57:00,
2013-03-16 23:02:00,28.8,26.2,29.18,SSW,205,0.0,0.0,90,0.00,,,0.00,meteohub,2013-03-17 03:02:00,
2013-03-16 23:07:00,28.8,26.2,29.19,SSW,206,0.0,0.0,90,0.00,,,0.00,meteohub,2013-03-17 03:07:00,
2013-03-16 23:12:00,28.8,26.2,29.19,SSW,205,0.0,0.0,90,0.00,,,0.00,meteohub,2013-03-17 03:12:00,
2013-03-16 23:17:00,28.8,26.2,29.19,SSW,205,0.0,0.0,90,0.00,,,0.00,meteohub,2013-03-17 03:17:00,
2013-03-16 23:22:00,28.6,26.1,29.19,SSW,206,0.0,0.0,90,0.00,,,0.00,meteohub,2013-03-17 03:22:00,
2013-03-16 23:27:00,28.6,26.1,29.19,SSW,205,0.0,0.0,90,0.00,,,0.00,meteohub,2013-03-17 03:27:00,
2013-03-16 23:33:00,28.6,26.1,29.19,SSW,205,0.0,0.0,90,0.00,,,0.00,meteohub,2013-03-17 03:33:00,
2013-03-16 23:38:00,28.6,26.1,29.20,SSW,205,0.0,0.0,90,0.00,,,0.00,meteohub,2013-03-17 03:38:00,
2013-03-16 23:43:00,28.4,25.5,29.20,SSW,205,0.0,0.0,89,0.00,,,0.00,meteohub,2013-03-17 03:43:00,
2013-03-16 23:49:00,28.2,25.3,29.20,SSW,205,0.0,0.0,89,0.00,,,0.00,meteohub,2013-03-17 03:49:00,
2013-03-16 23:54:00,28.0,25.2,29.20,SSW,205,0.0,0.0,89,0.00,,,0.00,meteohub,2013-03-17 03:54:00,
2013-03-16 23:59:00,27.9,25.3,29.20,SSW,206,0.0,0.0,90,0.00,,,0.00,meteohub,2013-03-17 03:59:00,